Цители-Цкаро

Georgia     41˚28′01″N   46˚07′01″E
temp.,
°C
wind,
m/s
gust,
m/s
humid.,
%
clouds,
%
prec.,
mm/h
press.,
hPa
HPBL,
m
27 november, fri
fri2701:00+2˚nw11680 0.0 102522
04:00+1˚wnw11729 0.0 102622
07:00wnw017535 0.0 102822
10:00+4˚nne125425 0.0 1030261
13:00+6˚ene22527 0.0 1030803
16:00+6˚ene22535 0.0 1030853
19:00+3˚e11751 0.0 103222
22:00+2˚ene11836 0.0 103444
28 november, sat
sat2801:00+3˚n127992 0.0 103460
04:00+2˚nnw128376 0.1 103331
07:00+1˚wsw118510 0.0 103222
10:00+4˚w11735 0.0 1031187
13:00+7˚wnw11574 0.0 1028712
16:00+7˚ene015217 0.0 1027717
19:00+3˚se116937 0.0 102822
22:00+2˚nw117226 0.0 102922
29 november, sun
sun2901:00+2˚nnw117196 0.0 102922
04:00+1˚nnw117365 0.0 102822
07:00+1˚wnw12716 0.0 102822
10:00+4˚w116052 0.0 102776
13:00+7˚nnw2254100 0.0 1025430
16:00+8˚n1157100 0.0 1024437
19:00+6˚ssw1168100 0.1 102523
22:00+5˚ssw1182100 0.6 102678
30 november, mon
mon3001:00+5˚w1286100 0.1 1025105
04:00+5˚wsw1190100 0.3 1025116
07:00+4˚sw0193100 0.7 102487
10:00+5˚ene0093100 1.4 1024121
13:00+5˚ese0091100 0.3 1023173
16:00+5˚ese1192100 0.4 1022173
19:00+5˚sse1196100 0.3 1024114
22:00+5˚sse1296100 0.6 1024139
1 december, tue
tue101:00+4˚sse3494100 0.7 1024284
04:00+3˚sse3590100 1.1 1024314
07:00+3˚se239299 0.4 1024269
10:00+3˚se129099 0.6 1025213
13:00+5˚ene127795 0.0 1023528
16:00+6˚n117391 0.0 1023480
19:00+3˚ne008742 0.0 102522
22:00+2˚se118964 0.0 102622